[[{"header":{"parameterUnit":"m.s-1","parameterCategory":1,"la1":30.2991,"la2":30.254,"lo1":-89.0895,"lo2":-89.0444,"dy":0.0017,"dx":0.0017,"nx":28,"ny":28,"refTime":"2024-11-28T09:00:00:Z","depth":0,"parameterNumber":2,"parameterNumberName":"U-component_of_WINDS"},"data":[0,0,0,0,0,0,0,0,0,0,0,0,0,0,0,0,0,0,0,0,0,0,0,0,0,0,0,0,0,0,0,0,0,0,0,0,0,0,0,0,0,0,0,0,0,0,0,0,0,0,0,0,0,0,0,0,0,0,-2.3575,-2.3575,0,-2.362,-2.3621,-2.3621,-2.3561,-2.3559,-2.3557,-2.3555,-2.3603,-2.3606,-2.3609,0,0,0,0,0,0,0,0,0,0,0,0,0,-2.3436,-2.3439,-2.3575,-2.3575,-2.3576,-2.362,-2.3621,-2.3622,-2.3562,-2.3559,-2.3556,-2.3554,-2.3602,-2.3605,-2.3609,0,0,0,0,0,0,0,0,0,0,0,0,0,-2.3491,-2.344,-2.3575,-2.3551,-2.355,-2.362,-2.3621,-2.3622,-2.3562,-2.3559,-2.3556,-2.3553,-2.36,-2.3605,-2.361,-2.3706,0,0,-2.3625,-2.3627,0,0,0,0,0,0,0,0,-2.3488,-2.3496,-2.3554,-2.3553,-2.3551,-2.3582,-2.3589,-2.365,-2.3563,-2.3558,-2.3555,-2.3551,-2.3598,-2.3603,-2.3619,-2.3708,-2.371,-2.3625,-2.3628,-2.3631,-2.3632,0,0,0,0,0,0,0,-2.3484,-2.3493,-2.3593,-2.3555,-2.3554,-2.3539,-2.3543,-2.3601,-2.3596,-2.3558,-2.3554,-2.356,-2.3597,-2.3614,-2.362,-2.3711,-2.3625,-2.363,-2.3633,-2.3635,-2.388,-2.3883,0,0,0,0,0,0,-2.3483,-2.3491,-2.3591,-2.3594,-2.3511,-2.3544,-2.3548,-2.3575,-2.3595,-2.3595,-2.3562,-2.3557,-2.3608,-2.3614,-2.3621,-2.3735,-2.3631,-2.3635,-2.3638,-2.3876,-2.3881,-2.3885,0,0,0,0,0,0,-2.348,-2.3492,-2.359,-2.3541,-2.3553,-2.355,-2.358,-2.3578,-2.3595,-2.3598,-2.3597,-2.3581,-2.3605,-2.3614,-2.3685,-2.3736,-2.3637,-2.3642,-2.3872,-2.3878,-2.3883,-2.3963,0,0,0,0,0,0,-2.3476,-2.3492,-2.3528,-2.3543,-2.3555,-2.3653,-2.3584,-2.3581,-2.3604,-2.3597,-2.3616,-2.3616,-2.3603,-2.3678,-2.369,-2.3741,-2.3646,-2.3868,-2.3875,-2.3881,-2.3956,-2.397,-2.3983,0,0,0,0,0,-2.3472,-2.3549,-2.353,-2.3543,-2.3601,-2.3656,-2.3663,-2.3647,-2.3608,-2.3645,-2.3647,-2.3615,-2.3728,-2.3686,-2.3699,-2.3752,-2.3865,-2.3873,-2.3881,-2.395,-2.3967,-2.3982,0,0,0,0,0,0,-2.3542,-2.3551,-2.353,-2.3615,-2.3635,-2.3646,-2.3692,-2.3667,-2.3699,-2.3691,-2.367,-2.3675,-2.375,-2.3758,-2.3711,-2.3845,-2.379,-2.3801,-2.3838,-2.3855,-2.3868,-2.3865,-2.365,0,0,0,0,0,-2.3567,-2.3611,-2.3616,-2.369,-2.3701,-2.3695,-2.3718,-2.3704,-2.3724,-2.3733,-2.374,-2.3761,-2.3801,-2.3828,-2.3865,-2.3956,-2.3959,-2.3999,-2.4012,-2.4023,-2.4033,-2.4082,-2.41,-2.3911,-2.3911,-2.3911,0,0,-2.3619,-2.363,-2.3659,-2.3705,-2.3719,-2.3765,-2.3703,-2.3754,-2.3788,-2.3741,-2.3808,-2.3814,-2.3836,-2.3917,-2.3953,-2.3926,-2.4086,-2.4033,-2.4042,-2.4046,-2.4092,-2.411,-2.4126,-2.3916,-2.3915,-2.3914,0,0,-2.3739,-2.3751,-2.3815,-2.383,-2.3851,-2.3846,-2.3862,-2.3876,-2.3878,-2.3945,-2.391,-2.395,-2.402,-2.4037,-2.4055,-2.418,-2.4152,-2.4192,-2.4263,-2.4311,-2.4326,-2.4339,-2.4384,-2.4401,-2.4202,-2.4202,-2.4202,0,-2.3803,-2.387,-2.385,-2.3904,-2.3925,-2.3883,-2.3947,-2.3963,-2.3996,-2.4012,-2.398,-2.4066,-2.4078,-2.4162,-2.4193,-2.4208,-2.4225,-2.4191,-2.4325,-2.4338,-2.435,-2.4393,-2.441,-2.4207,-2.4206,-2.4206,-2.4205,0,-2.3947,-2.3995,-2.4043,-2.4076,-2.4102,-2.4161,-2.4149,-2.4178,-2.4161,-2.4159,-2.4228,-2.424,-2.4279,-2.4298,-2.4282,-2.438,-2.4363,-2.4328,-2.4273,-2.4373,-2.4413,-2.4429,-2.4214,-2.4212,-2.4211,-2.4209,0,0,-2.4114,-2.4134,-2.4152,-2.4166,-2.4187,-2.4223,-2.4279,-2.4317,-2.4342,-2.4366,-2.4413,-2.4472,-2.444,-2.446,-2.4446,-2.4487,-2.4586,-2.4448,-2.4448,-2.4474,-2.4696,-2.4722,-2.4742,-2.4567,-2.457,-2.4572,-2.4694,0,-2.4235,-2.4333,-2.4315,-2.441,-2.4454,-2.4414,-2.4463,-2.4481,-2.4481,-2.4517,-2.4516,-2.4559,-2.4513,-2.4525,-2.4565,-2.4566,-2.4631,-2.4557,-2.4611,-2.4613,-2.4608,-2.4762,-2.4791,-2.4905,-2.4709,-2.4712,-2.4714,0,-2.4389,-2.4418,-2.4518,-2.453,-2.4548,-2.4593,-2.4625,-2.4661,-2.468,-2.4676,-2.4698,-2.4676,-2.4732,-2.4674,-2.4751,-2.4701,-2.4722,-2.4725,-2.4729,-2.4735,-2.4671,-2.4773,-2.4941,-2.4959,-2.4738,-2.4736,-2.4735,0,-2.4502,-2.4566,-2.4634,-2.4647,-2.4663,-2.4696,-2.4704,-2.472,-2.4743,-2.4771,-2.4786,-2.4821,-2.484,-2.4867,-2.4854,-2.4813,-2.4934,-2.4874,-2.4933,-2.4933,-2.4962,-2.496,-2.5137,-2.4973,-2.4973,-2.4972,-2.4972,0,-2.464,-2.4702,-2.4685,-2.4727,-2.4795,-2.4774,-2.4843,-2.4846,-2.4861,-2.4902,-2.4869,-2.4909,-2.4889,-2.4927,-2.4917,-2.4983,-2.4991,-2.499,-2.4987,-2.4994,-2.4995,-2.5009,-2.5001,-2.4977,-2.4976,-2.4975,-2.4974,0,-2.4779,-2.4769,-2.484,-2.485,-2.4853,-2.4904,-2.4912,-2.4951,-2.4947,-2.5,-2.5011,-2.5005,-2.5049,-2.5038,-2.5085,-2.5078,-2.5161,-2.5147,-2.5155,-2.5152,-2.5211,-2.5206,-2.5404,-2.5429,-2.5248,-2.525,-2.5251,0,-2.4868,-2.4915,-2.4929,-2.4954,-2.4965,-2.5006,-2.503,-2.5011,-2.5036,-2.5061,-2.5097,-2.5137,-2.5168,-2.5239,-2.5239,-2.5275,-2.5263,-2.5329,-2.5268,-2.5273,-2.5265,-2.5263,-2.5267,-2.5342,-2.5344,-2.5346,-2.5347,0,-2.5027,-2.502,-2.5055,-2.5088,-2.5117,-2.5143,-2.5165,-2.5187,-2.517,-2.52,-2.5244,-2.5268,-2.5316,-2.5356,-2.5389,-2.5397,-2.537,-2.5366,-2.5382,-2.539,-2.5393,-2.5393,-2.5189,-2.5362,-2.5361,-2.536,-2.5359,-2.5358,-2.5144,-2.5184,-2.52,-2.524,-2.5255,-2.5276,-2.5313,-2.5314,-2.535,-2.5387,-2.5373,-2.5423,-2.544,-2.5481,-2.5493,-2.5532,-2.5506,-2.5529,-2.5535,-2.5541,-2.5549,-2.5386,-2.5537,-2.5537,-2.5536,-2.5536,-2.5536,0,-2.5303,-2.5311,-2.5348,-2.538,-2.5411,-2.5381,-2.5404,-2.5433,-2.5477,-2.5495,-2.5526,-2.5576,-2.5614,-2.5617,-2.5653,-2.5683,-2.5672,-2.5694,-2.5692,-2.5694,-2.5569,-2.5552,-2.5702,-2.5702,-2.5702,-2.5702,-2.5702,-2.5702,-2.5389,-2.5455,-2.545,-2.5523,-2.553,-2.5579,-2.5594,-2.5614,-2.5628,-2.5685,-2.5717,-2.5718,-2.5729,-2.5766,-2.58,-2.5799,-2.5814,-2.5842,-2.5837,-2.572,-2.5703,-2.5687,-2.5672,-2.5845,-2.5845,-2.5959,-2.596,-2.5961]},{"header":{"parameterUnit":"m.s-1","parameterCategory":1,"la1":30.2991,"la2":30.254,"lo1":-89.0895,"lo2":-89.0444,"dy":0.0017,"dx":0.0017,"nx":28,"ny":28,"refTime":"2024-11-28T09:00:00:Z","depth":0,"parameterNumber":3,"parameterNumberName":"V-component_of_WINDS"},"data":[0,0,0,0,0,0,0,0,0,0,0,0,0,0,0,0,0,0,0,0,0,0,0,0,0,0,0,0,0,0,0,0,0,0,0,0,0,0,0,0,0,0,0,0,0,0,0,0,0,0,0,0,0,0,0,0,0,0,-8.3231,-8.3232,0,-8.3324,-8.3325,-8.3326,-8.3237,-8.3233,-8.3229,-8.3226,-8.3315,-8.332,-8.3326,0,0,0,0,0,0,0,0,0,0,0,0,0,-8.297,-8.2975,-8.3231,-8.3232,-8.3233,-8.3324,-8.3325,-8.3326,-8.3237,-8.3233,-8.3229,-8.3224,-8.3313,-8.3319,-8.3326,0,0,0,0,0,0,0,0,0,0,0,0,0,-8.3075,-8.2977,-8.3231,-8.32,-8.3198,-8.3324,-8.3325,-8.3327,-8.3238,-8.3233,-8.3227,-8.3222,-8.3311,-8.3319,-8.3327,-8.3486,0,0,-8.3353,-8.3357,0,0,0,0,0,0,0,0,-8.3069,-8.3084,-8.3203,-8.3202,-8.32,-8.3263,-8.3265,-8.338,-8.3239,-8.3223,-8.3226,-8.322,-8.3301,-8.331,-8.3339,-8.349,-8.3494,-8.3354,-8.3359,-8.3363,-8.3365,0,0,0,0,0,0,0,-8.3062,-8.308,-8.3267,-8.3205,-8.3203,-8.3179,-8.3188,-8.3287,-8.329,-8.3224,-8.3217,-8.323,-8.33,-8.3331,-8.3341,-8.3495,-8.3354,-8.3361,-8.3366,-8.337,-8.378,-8.3786,0,0,0,0,0,0,-8.3059,-8.3075,-8.3264,-8.327,-8.3121,-8.3188,-8.3198,-8.3248,-8.3289,-8.329,-8.3235,-8.3226,-8.3319,-8.3331,-8.3343,-8.3532,-8.3363,-8.3371,-8.3375,-8.3774,-8.3781,-8.3788,0,0,0,0,0,0,-8.3054,-8.3077,-8.3261,-8.3171,-8.3192,-8.3198,-8.3255,-8.3253,-8.3285,-8.3297,-8.3297,-8.3267,-8.3316,-8.3331,-8.3451,-8.3534,-8.3374,-8.3382,-8.3767,-8.3776,-8.3785,-8.3911,0,0,0,0,0,0,-8.3046,-8.3075,-8.3137,-8.3173,-8.3198,-8.337,-8.326,-8.3259,-8.33,-8.329,-8.3327,-8.3329,-8.3313,-8.3439,-8.346,-8.3543,-8.3389,-8.376,-8.3771,-8.3782,-8.3899,-8.3923,-8.3943,0,0,0,0,0,-8.3037,-8.3167,-8.3141,-8.3164,-8.3276,-8.3375,-8.3388,-8.337,-8.3307,-8.3369,-8.3377,-8.3327,-8.3522,-8.3452,-8.3475,-8.3561,-8.3755,-8.3768,-8.3781,-8.3889,-8.3918,-8.3942,0,0,0,0,0,0,-8.3138,-8.3171,-8.3142,-8.3288,-8.333,-8.3359,-8.3436,-8.34,-8.3458,-8.3446,-8.3417,-8.3427,-8.3554,-8.3569,-8.3492,-8.3717,-8.3628,-8.3646,-8.3702,-8.373,-8.3751,-8.3745,-8.3396,0,0,0,0,0,-8.3178,-8.3258,-8.3282,-8.3408,-8.3431,-8.343,-8.3473,-8.3455,-8.3495,-8.3512,-8.3528,-8.3568,-8.3638,-8.3684,-8.3749,-8.3901,-8.3907,-8.3971,-8.3993,-8.4011,-8.4027,-8.4108,-8.4136,-8.3831,-8.3831,-8.383,0,0,-8.326,-8.3288,-8.334,-8.3429,-8.3459,-8.3541,-8.3445,-8.3535,-8.3595,-8.3524,-8.364,-8.3654,-8.3696,-8.3833,-8.3893,-8.3849,-8.4113,-8.4027,-8.4041,-8.4048,-8.4124,-8.4153,-8.4179,-8.3839,-8.3838,-8.3836,0,0,-8.3451,-8.3481,-8.359,-8.3623,-8.367,-8.3669,-8.3695,-8.3731,-8.3738,-8.3854,-8.3803,-8.3872,-8.3993,-8.4026,-8.4058,-8.4263,-8.4219,-8.4284,-8.4398,-8.4477,-8.4501,-8.4522,-8.4596,-8.4622,-8.43,-8.43,-8.43,0,-8.3547,-8.367,-8.365,-8.3745,-8.3785,-8.3727,-8.3836,-8.3868,-8.3933,-8.3962,-8.3911,-8.4063,-8.4087,-8.4231,-8.4281,-8.4309,-8.4337,-8.428,-8.45,-8.4521,-8.454,-8.461,-8.4637,-8.4308,-8.4307,-8.4306,-8.4306,0,-8.3785,-8.3871,-8.3953,-8.4021,-8.407,-8.4172,-8.4165,-8.4217,-8.4194,-8.4198,-8.4316,-8.4343,-8.4413,-8.4446,-8.4424,-8.4586,-8.4558,-8.4505,-8.4414,-8.4578,-8.4642,-8.4669,-8.4319,-8.4316,-8.4314,-8.4312,0,0,-8.4042,-8.4099,-8.4129,-8.4159,-8.4208,-8.4273,-8.4371,-8.4442,-8.4487,-8.4534,-8.4615,-8.4719,-8.467,-8.4707,-8.4688,-8.4758,-8.4918,-8.4696,-8.4696,-8.4736,-8.5099,-8.5139,-8.5171,-8.489,-8.4895,-8.4899,-8.5096,0,-8.4236,-8.4409,-8.4394,-8.4558,-8.4637,-8.4583,-8.4668,-8.4706,-8.4712,-8.4778,-8.4783,-8.4858,-8.4788,-8.481,-8.4877,-8.4885,-8.4991,-8.487,-8.4963,-8.4967,-8.4955,-8.5204,-8.5247,-8.5432,-8.5121,-8.5125,-8.5128,0,-8.4484,-8.4543,-8.4716,-8.4753,-8.4786,-8.4863,-8.4927,-8.4991,-8.5033,-8.5032,-8.5074,-8.5043,-8.514,-8.5048,-8.518,-8.5099,-8.5136,-8.5145,-8.5152,-8.516,-8.5058,-8.5219,-8.549,-8.5518,-8.5168,-8.5164,-8.5162,0,-8.4656,-8.4778,-8.4897,-8.4924,-8.497,-8.5026,-8.5048,-8.5084,-8.5128,-8.5182,-8.521,-8.5274,-8.531,-8.5359,-8.5346,-8.528,-8.5482,-8.5388,-8.5483,-8.5483,-8.5528,-8.5525,-8.5809,-8.5551,-8.5551,-8.555,-8.555,0,-8.4874,-8.4981,-8.4975,-8.5048,-8.5167,-8.5147,-8.5264,-8.5278,-8.5311,-8.5384,-8.5341,-8.541,-8.5388,-8.5456,-8.5446,-8.5557,-8.5573,-8.5574,-8.557,-8.5579,-8.5579,-8.5603,-8.559,-8.5558,-8.5556,-8.5555,-8.5553,0,-8.5085,-8.5085,-8.5212,-8.5246,-8.5257,-8.5343,-8.5371,-8.5439,-8.5442,-8.5535,-8.5556,-8.556,-8.5638,-8.563,-8.5716,-8.5709,-8.5847,-8.5827,-8.5834,-8.583,-8.5925,-8.5916,-8.6234,-8.6274,-8.5991,-8.5993,-8.5996,0,-8.5224,-8.5306,-8.535,-8.5398,-8.5424,-8.5501,-8.5546,-8.5529,-8.5577,-8.5631,-8.5692,-8.5767,-8.5825,-8.5952,-8.5961,-8.6026,-8.6008,-8.6115,-8.6017,-8.6023,-8.601,-8.6006,-8.6014,-8.6134,-8.6137,-8.614,-8.6142,0,-8.5472,-8.5468,-8.5536,-8.5605,-8.5661,-8.5713,-8.576,-8.5801,-8.5789,-8.5845,-8.5925,-8.5971,-8.606,-8.6134,-8.6197,-8.6216,-8.6177,-8.6173,-8.6198,-8.6208,-8.6208,-8.621,-8.5887,-8.6165,-8.6163,-8.6161,-8.616,-8.6159,-8.5652,-8.5722,-8.5765,-8.5842,-8.5877,-8.5923,-8.5989,-8.6001,-8.6068,-8.6142,-8.6127,-8.6217,-8.6255,-8.6336,-8.6362,-8.6431,-8.6391,-8.6428,-8.6437,-8.6447,-8.6458,-8.6198,-8.6442,-8.6441,-8.644,-8.644,-8.6439,0,-8.5897,-8.5922,-8.5994,-8.6063,-8.6124,-8.6084,-8.6135,-8.6187,-8.6269,-8.6309,-8.6368,-8.6461,-8.6532,-8.6547,-8.6615,-8.6668,-8.6652,-8.6686,-8.6682,-8.6687,-8.6489,-8.6461,-8.6698,-8.6698,-8.6698,-8.6698,-8.6698,-8.6698,-8.6032,-8.615,-8.6152,-8.6286,-8.6309,-8.64,-8.6432,-8.6473,-8.6506,-8.6612,-8.6672,-8.6682,-8.6712,-8.6782,-8.6846,-8.6848,-8.6875,-8.6917,-8.6912,-8.6727,-8.6701,-8.6676,-8.665,-8.6923,-8.6923,-8.7105,-8.7106,-8.7108]}]]